Regional Weather Roundup
Issued by NWS

Home | Current Version | Previous Version | Text Only | Print | Product List | Glossary Off
Versions: 1 2 3 4 5 6 7 8 9 10 11 12 13 14 15 16 17 18 19 20 21 22 23 24 25 26 27 28 29 30 31 32 33 34 35 36 37 38 39 40 41 42 43 44 45 46 47 48 49 50

000
ASUS43 KMKX 021720
RWRWI

WISCONSIN REGIONAL WEATHER ROUNDUP
NATIONAL WEATHER SERVICE MILWAUKEE/SULLIVAN WI
1200 PM CDT TUE JUN 02 2015

NOTE: "FAIR" INDICATES FEW OR NO CLOUDS BELOW 12,000 FEET WITH NO
SIGNIFICANT WEATHER AND/OR OBSTRUCTIONS TO VISIBILITY.

WIZ001-002-006>008-014>016-023>028-021800-
NORTHWEST WISCONSIN

CITY           SKY/WX    TMP DP  RH WIND       PRES   REMARKS
SUPERIOR ARPT  SUNNY     54  41  61 NE8       30.04S
ASHLAND        PTSUNNY   72  46  39 S13       30.04F
HAYWARD        SUNNY     70  47  43 S16       30.06F
SIREN          SUNNY     71  51  49 S10G18    30.04F
CUMBERLAND     SUNNY     64  50  59 S13       30.07F
RICE LAKE      SUNNY     68  47  47 S15       30.09F
CHETEK         SUNNY     67  51  56 SE9       30.08F
LADYSMITH      SUNNY     66  45  47 S10G16    30.12F
EAU CLAIRE     NOT AVBL
MENOMONIE      SUNNY     69  52  55 S12       30.08F
NEW RICHMOND   SUNNY     68  53  58 S13G20    30.06F
OSCEOLA        MOSUNNY   70  52  52 S15G21    30.07S
$$

WIZ003>005-009-010-017-018-021800-
NORTH CENTRAL WISCONSIN

CITY           SKY/WX    TMP DP  RH WIND       PRES   REMARKS
MANITOWISH WTR PTSUNNY   64  41  44 S9G17     30.11F
ARBOR VITAE    PTSUNNY   64  39  39 S10G16    30.12F
WOODRUFF       PTSUNNY   64  39  39 S10G16    30.12F
RHINELANDER    PTSUNNY   64  34  32 S9        30.14F
EAGLE RIVER    PTSUNNY   63  33  32 SW8       30.13F
LAND O LAKES   PTSUNNY   65  35  33 SW9       30.13F
PHILLIPS       SUNNY     64  42  43 SW8       30.11F
TOMAHAWK       MOSUNNY   63  40  42 S3        30.14F
MEDFORD        SUNNY     62  42  48 S8        30.14F
MERRILL        MOSUNNY   63  40  41 SW9       30.15F
$$

WIZ029-030-035-036-043>047-021800-
CENTRAL WISCONSIN

CITY           SKY/WX    TMP DP  RH WIND       PRES   REMARKS
WAUSAU         MOSUNNY   64  39  39 S8        30.13F
MOSINEE        NOT AVBL
MARSHFIELD     SUNNY     66  41  40 SE9       30.14F
STEVENS POINT  SUNNY     64  40  41 S6        30.16F
WAUPACA        SUNNY     68  41  37 S8        30.16F
WAUTOMA        NOT AVBL
WISC RAPIDS    SUNNY     68  35  29 VRB7      30.15F
CAMP DOUGLAS   NOT AVBL
$$

WIZ011>013-019>022-031-037>040-048>050-021800-
NORTHEAST WISCONSIN

CITY           SKY/WX    TMP DP  RH WIND       PRES   REMARKS
ANTIGO         MOSUNNY   62  43  49 SW9       30.16F
SHAWANO        MOSUNNY   67  42  39 SE8       30.16F
OCONTO         PTSUNNY   65  38  37 S6        30.17F
STURGEON BAY   MOSUNNY   63  45  51 E9        30.20F
GREEN BAY      MOSUNNY   68  44  42 VRB6      30.16F
MANITOWOC      NOT AVBL
APPLETON       MOSUNNY   64  36  34 S8        30.17F
CLINTONVILLE   SUNNY     64  39  39 S12       30.16F
OSHKOSH        SUNNY     68  42  38 SE9       30.16F
$$

WIZ032>034-041-042-053>061-021800-
SOUTHWEST WISCONSIN

CITY           SKY/WX    TMP DP  RH WIND       PRES   REMARKS
LA CROSSE      SUNNY     69  51  52 S6        30.10F
SPARTA         SUNNY     68  42  38 SE5       30.13F
VIROQUA        SUNNY     66  50  55 S9        30.13F
BOSCOBEL       FAIR      71  50  47 SE8       30.13F
PRAIRIE DU CHI MOSUNNY   65  50  57 W3        30.12F
PLATTEVILLE    PTSUNNY   65  53  65 SE5       30.14F
$$

WIZ056-057-062-063-064-067-068-021800-
SOUTH CENTRAL WISCONSIN

CITY           SKY/WX    TMP DP  RH WIND       PRES   REMARKS
REEDSBURG      SUNNY     64  43  46 SE3       30.14F
BARABOO/DELLS  SUNNY     65  42  44 S6        30.15F
LONE ROCK      NOT AVBL
MINERAL POINT  FAIR      66  46  48 E5        30.14F
MADISON        MOSUNNY   65  44  46 S6        30.15F
MIDDLETON      SUNNY     66  42  40 S8        30.16F
WATERTOWN      MOSUNNY   67  41  38 E9        30.15F
MONROE         SUNNY     64  45  48 SE7       30.15F
JANESVILLE     SUNNY     68  45  42 S8        30.15F
$$

WIZ051-052-058>065-066-070>072-021800-
SOUTHEAST WISCONSIN

CITY           SKY/WX    TMP DP  RH WIND       PRES   REMARKS
MILWAUKEE      MOSUNNY   59  45  59 E9        30.18F
WAUKESHA       SUNNY     64  36  34 E10       30.18S
MILWAUKEE/TIMM SUNNY     64  36  34 SE8       30.18F
RACINE         SUNNY     58  46  64 E7        30.20F
BURLINGTON     SUNNY     64  43  46 SE7       30.16F
KENOSHA        SUNNY     63  48  58 E12       30.18F
FOND DU LAC    LGT RAIN  68  43  40 S7        30.16F
SHEBOYGAN      SUNNY     65  40  39 SE8       30.18F
WEST BEND      SUNNY     66  37  34 SE7       30.17F
JUNEAU         SUNNY     65  41  41 E10       30.17F
$$

LSZ147-162-021800-
LAKE SUPERIOR

STATION/POSITION TIME  TEMP    WIND        PRES    WAVE
                       AIR SEA DIR/SP/G            HT/PER
                 (UTC) (F)     (DEG/KT/KT) (MB)    (FT/S)
W MID LAKE BUOY  1550   42 37  120/  4/  4   N/A     1
DEVILS ISLAND    1600   60     170/  8/ 13   N/A
PORT WING        1500   45      30/  5/  6   N/A
SAXON HARBOR     1540   67     210/ 11/ 14   N/A
$$

LMZ867-665-643>646-021800-
LAKE MICHIGAN

STATION/POSITION TIME  TEMP    WIND        PRES    WAVE
                       AIR SEA DIR/SP/G            HT/PER
                 (UTC) (F)     (DEG/KT/KT) (MB)    (FT/S)
CHAMBERS ISLAND  1500   58     340/  3/  4   N/A
N MID LAKE BUOY  1550   42 38  190/  4/  4   N/A     0
NORTHPORT PIER   1600   49     140/ 12/ 13   N/A
SISTER BAY       1618   58     350/  7/  8   N/A
ALGOMA LAKESHORE 1639          190/  5/  6   N/A
KEWAUNEE LAKESHO 1600   46     170/  6/  8   N/A
SHEBOYGAN LAKESH 1600   47     140/  9/  9   N/A
PORT WASHINGTON  1600   50      90/  2/  3   N/A
ATWATER BUOY     1600   46      60/  2/  4   N/A
MILWAUKEE LAKESH 1600   47      60/  4/  4   N/A
S MID LAKE BUOY  1550   42 39  120/  6/  8   N/A     1
KENOSHA   LAKESH 1600   49      80/  4/  7   N/A
$$

TC  - TEMPERATURE IN CELSIUS
VSB - VISIBILITY IN STATUTE MILES
WCI - WIND CHILL INDEX
HX  - HEAT INDEX




USA.gov is the U.S. government's official web portal to all federal, state and local government web resources and services.